[[{"header":{"parameterUnit":"m.s-1","parameterCategory":1,"la1":30.2991,"la2":30.254,"lo1":-89.0895,"lo2":-89.0444,"dy":0.0017,"dx":0.0017,"nx":28,"ny":28,"refTime":"2024-02-02T09:00:00:Z","depth":0,"parameterNumber":2,"parameterNumberName":"U-component_of_WINDS"},"data":[0,0,0,0,0,0,0,0,0,0,0,0,0,0,0,0,0,0,0,0,0,0,0,0,0,0,0,0,0,0,0,0,0,0,0,0,0,0,0,0,0,0,0,0,0,0,0,0,0,0,0,0,0,0,0,0,0,0,-0.5395,-0.5395,0,-0.543,-0.5431,-0.5431,-0.5415,-0.5415,-0.5414,-0.5413,-0.5452,-0.5454,-0.5456,0,0,0,0,0,0,0,0,0,0,0,0,0,-0.5316,-0.5317,-0.5395,-0.5395,-0.5395,-0.543,-0.5431,-0.5431,-0.5416,-0.5414,-0.5413,-0.5412,-0.5451,-0.5454,-0.5456,0,0,0,0,0,0,0,0,0,0,0,0,0,-0.5351,-0.5318,-0.5395,-0.5392,-0.5392,-0.543,-0.5431,-0.5431,-0.5416,-0.5414,-0.5413,-0.5412,-0.5451,-0.5453,-0.5456,-0.55,0,0,-0.5465,-0.5466,0,0,0,0,0,0,0,0,-0.5349,-0.5353,-0.5392,-0.5392,-0.5392,-0.5417,-0.5417,-0.5454,-0.5416,-0.5407,-0.5413,-0.5411,-0.5442,-0.5445,-0.5455,-0.5502,-0.5504,-0.5465,-0.5467,-0.5468,-0.5469,0,0,0,0,0,0,0,-0.5346,-0.5352,-0.5409,-0.5392,-0.5393,-0.539,-0.5393,-0.5424,-0.5431,-0.5408,-0.5406,-0.5411,-0.5442,-0.5452,-0.5456,-0.5504,-0.5465,-0.5467,-0.5469,-0.547,-0.559,-0.5591,0,0,0,0,0,0,-0.5343,-0.535,-0.5408,-0.541,-0.5367,-0.5392,-0.5396,-0.541,-0.5431,-0.5433,-0.5412,-0.541,-0.5448,-0.5452,-0.5457,-0.551,-0.5468,-0.547,-0.5472,-0.5588,-0.559,-0.5592,0,0,0,0,0,0,-0.5342,-0.5349,-0.5406,-0.538,-0.5387,-0.5395,-0.5411,-0.5412,-0.5422,-0.5434,-0.5436,-0.5421,-0.5447,-0.5453,-0.5489,-0.5511,-0.5472,-0.5474,-0.5587,-0.5589,-0.5591,-0.5617,0,0,0,0,0,0,-0.534,-0.5348,-0.5364,-0.538,-0.5388,-0.5437,-0.5412,-0.5413,-0.5427,-0.5425,-0.5443,-0.5445,-0.5446,-0.5485,-0.5492,-0.5514,-0.5476,-0.5585,-0.5588,-0.559,-0.5614,-0.5619,-0.5624,0,0,0,0,0,-0.5337,-0.5371,-0.5365,-0.5372,-0.5408,-0.5439,-0.5443,-0.5443,-0.5429,-0.5446,-0.5453,-0.5445,-0.5508,-0.5489,-0.5497,-0.552,-0.5583,-0.5587,-0.559,-0.5612,-0.5618,-0.5624,0,0,0,0,0,0,-0.5358,-0.5373,-0.5367,-0.5406,-0.5421,-0.5436,-0.5457,-0.5451,-0.5471,-0.5468,-0.5468,-0.5472,-0.551,-0.5519,-0.5498,-0.5564,-0.5543,-0.5548,-0.5557,-0.5564,-0.5569,-0.5566,-0.5479,0,0,0,0,0,-0.5367,-0.539,-0.5401,-0.5435,-0.5443,-0.5449,-0.5462,-0.5461,-0.5477,-0.5483,-0.5493,-0.551,-0.5533,-0.5549,-0.5571,-0.5615,-0.5619,-0.5635,-0.564,-0.5644,-0.5649,-0.5673,-0.5681,-0.5603,-0.5603,-0.5603,0,0,-0.5387,-0.5397,-0.5412,-0.544,-0.5451,-0.5476,-0.5454,-0.5481,-0.5499,-0.5487,-0.5522,-0.553,-0.5549,-0.5589,-0.5608,-0.5598,-0.5671,-0.5648,-0.5652,-0.5654,-0.5678,-0.5685,-0.5692,-0.5605,-0.5605,-0.5604,0,0,-0.5434,-0.5444,-0.5474,-0.5486,-0.5503,-0.5506,-0.5514,-0.5529,-0.5534,-0.5569,-0.5561,-0.5583,-0.5623,-0.5637,-0.5649,-0.5703,-0.5696,-0.571,-0.5737,-0.5761,-0.5767,-0.5773,-0.5792,-0.5799,-0.5714,-0.5714,-0.5714,0,-0.5457,-0.5492,-0.549,-0.5517,-0.553,-0.552,-0.5551,-0.5562,-0.5587,-0.5596,-0.5584,-0.5635,-0.5647,-0.5691,-0.5704,-0.5714,-0.5723,-0.5708,-0.5766,-0.5772,-0.5777,-0.5796,-0.5803,-0.5716,-0.5716,-0.5716,-0.5715,0,-0.5519,-0.5543,-0.5565,-0.5588,-0.5604,-0.5632,-0.5636,-0.5652,-0.565,-0.5655,-0.5691,-0.5704,-0.573,-0.574,-0.5738,-0.5784,-0.5777,-0.5766,-0.5745,-0.5786,-0.5804,-0.5811,-0.5718,-0.5718,-0.5717,-0.5717,0,0,-0.5581,-0.5602,-0.5611,-0.5621,-0.5639,-0.5659,-0.5688,-0.5711,-0.5725,-0.5743,-0.5767,-0.5802,-0.5792,-0.5805,-0.5805,-0.5826,-0.5868,-0.5812,-0.5813,-0.5823,-0.592,-0.5929,-0.5937,-0.5863,-0.5865,-0.5866,-0.5919,0,-0.5631,-0.568,-0.568,-0.5726,-0.5749,-0.574,-0.5765,-0.5779,-0.5785,-0.5806,-0.5813,-0.5838,-0.5822,-0.583,-0.585,-0.5859,-0.5888,-0.5855,-0.5888,-0.5889,-0.5884,-0.5947,-0.5956,-0.6005,-0.5926,-0.5927,-0.5928,0,-0.5695,-0.5714,-0.5762,-0.5777,-0.5787,-0.5809,-0.5831,-0.5852,-0.5868,-0.5871,-0.5887,-0.5883,-0.5913,-0.5891,-0.5933,-0.5911,-0.5924,-0.5931,-0.5932,-0.5936,-0.5911,-0.5953,-0.6021,-0.6029,-0.5939,-0.5938,-0.5937,0,-0.5737,-0.5774,-0.5808,-0.5817,-0.5835,-0.5851,-0.586,-0.5875,-0.589,-0.5909,-0.5919,-0.5942,-0.5955,-0.5973,-0.5976,-0.596,-0.6019,-0.5997,-0.6023,-0.6023,-0.6036,-0.6036,-0.6109,-0.6044,-0.6044,-0.6044,-0.6044,0,-0.5793,-0.5823,-0.5826,-0.5847,-0.5881,-0.588,-0.5914,-0.5922,-0.5935,-0.5958,-0.5952,-0.5973,-0.5976,-0.5999,-0.6001,-0.6036,-0.6042,-0.6046,-0.6047,-0.6047,-0.6047,-0.6056,-0.6053,-0.6046,-0.6045,-0.6045,-0.6045,0,-0.5845,-0.5849,-0.5885,-0.5899,-0.5904,-0.5928,-0.5941,-0.5961,-0.5966,-0.5995,-0.6002,-0.601,-0.6037,-0.6041,-0.6073,-0.6075,-0.6117,-0.6113,-0.6111,-0.6111,-0.6137,-0.6134,-0.6219,-0.623,-0.6158,-0.6158,-0.6159,0,-0.5881,-0.5904,-0.592,-0.5935,-0.5944,-0.5967,-0.5982,-0.5982,-0.5998,-0.6019,-0.6037,-0.6063,-0.6083,-0.6126,-0.6136,-0.616,-0.6158,-0.6186,-0.6161,-0.6161,-0.6159,-0.6158,-0.6161,-0.6191,-0.6191,-0.6192,-0.6193,0,-0.5944,-0.5945,-0.5966,-0.5987,-0.6005,-0.6022,-0.6038,-0.6051,-0.6053,-0.6071,-0.6098,-0.6114,-0.6146,-0.6172,-0.6196,-0.6206,-0.62,-0.62,-0.6207,-0.6208,-0.6206,-0.6208,-0.6124,-0.6198,-0.6198,-0.6197,-0.6197,-0.6197,-0.599,-0.601,-0.6025,-0.6048,-0.6061,-0.6076,-0.6096,-0.6103,-0.6125,-0.615,-0.6149,-0.6179,-0.6196,-0.6227,-0.6239,-0.6263,-0.6254,-0.6265,-0.6267,-0.627,-0.6273,-0.6202,-0.6267,-0.6267,-0.6267,-0.6267,-0.6267,0,-0.6054,-0.6063,-0.6084,-0.6107,-0.6126,-0.6117,-0.6135,-0.6152,-0.6177,-0.6193,-0.6213,-0.6244,-0.6269,-0.6281,-0.6306,-0.6323,-0.6321,-0.6329,-0.6328,-0.6331,-0.6279,-0.627,-0.633,-0.633,-0.633,-0.633,-0.633,-0.633,-0.6089,-0.6123,-0.6125,-0.6165,-0.6174,-0.6202,-0.6213,-0.6227,-0.624,-0.6274,-0.6295,-0.6302,-0.6316,-0.6342,-0.6365,-0.6368,-0.6378,-0.6388,-0.6389,-0.6341,-0.6334,-0.6328,-0.632,-0.639,-0.639,-0.6439,-0.644,-0.644]},{"header":{"parameterUnit":"m.s-1","parameterCategory":1,"la1":30.2991,"la2":30.254,"lo1":-89.0895,"lo2":-89.0444,"dy":0.0017,"dx":0.0017,"nx":28,"ny":28,"refTime":"2024-02-02T09:00:00:Z","depth":0,"parameterNumber":3,"parameterNumberName":"V-component_of_WINDS"},"data":[0,0,0,0,0,0,0,0,0,0,0,0,0,0,0,0,0,0,0,0,0,0,0,0,0,0,0,0,0,0,0,0,0,0,0,0,0,0,0,0,0,0,0,0,0,0,0,0,0,0,0,0,0,0,0,0,0,0,0.1899,0.1899,0,0.1901,0.1901,0.1901,0.1903,0.1903,0.1903,0.1903,0.1906,0.1906,0.1906,0,0,0,0,0,0,0,0,0,0,0,0,0,0.1897,0.1897,0.1899,0.1899,0.1899,0.1901,0.1901,0.1901,0.1903,0.1903,0.1903,0.1903,0.1906,0.1906,0.1906,0,0,0,0,0,0,0,0,0,0,0,0,0,0.1898,0.1897,0.1899,0.19,0.19,0.1901,0.1901,0.1901,0.1903,0.1903,0.1903,0.1903,0.1906,0.1906,0.1906,0.1906,0,0,0.1906,0.1906,0,0,0,0,0,0,0,0,0.1898,0.1898,0.19,0.19,0.19,0.1902,0.1901,0.1903,0.1903,0.1902,0.1903,0.1903,0.1905,0.1905,0.1905,0.1906,0.1906,0.1906,0.1906,0.1906,0.1906,0,0,0,0,0,0,0,0.1898,0.1898,0.19,0.19,0.19,0.1901,0.1901,0.1902,0.1903,0.1902,0.1902,0.1903,0.1905,0.1905,0.1905,0.1906,0.1906,0.1906,0.1906,0.1906,0.1908,0.1908,0,0,0,0,0,0,0.1898,0.1898,0.19,0.19,0.1899,0.1901,0.1901,0.1901,0.1903,0.1903,0.1903,0.1903,0.1905,0.1905,0.1905,0.1906,0.1906,0.1906,0.1907,0.1908,0.1908,0.1908,0,0,0,0,0,0,0.1898,0.1898,0.19,0.1899,0.1899,0.1901,0.1901,0.1901,0.1902,0.1903,0.1904,0.1903,0.1905,0.1905,0.1906,0.1906,0.1906,0.1907,0.1908,0.1908,0.1908,0.1906,0,0,0,0,0,0,0.1897,0.1898,0.1898,0.1899,0.1899,0.19,0.1901,0.1901,0.1902,0.1902,0.1904,0.1904,0.1905,0.1906,0.1906,0.1906,0.1907,0.1908,0.1908,0.1908,0.1906,0.1906,0.1906,0,0,0,0,0,0.1897,0.1897,0.1898,0.1898,0.1899,0.19,0.19,0.1901,0.1902,0.1902,0.1903,0.1904,0.1906,0.1906,0.1906,0.1906,0.1908,0.1908,0.1908,0.1906,0.1906,0.1906,0,0,0,0,0,0,0.1895,0.1897,0.1898,0.1898,0.1899,0.19,0.19,0.1901,0.1902,0.1902,0.1904,0.1904,0.1905,0.1905,0.1905,0.1906,0.1907,0.1907,0.1906,0.1905,0.1905,0.1905,0.1907,0,0,0,0,0,0.1895,0.1895,0.1897,0.1897,0.1897,0.1899,0.1899,0.19,0.1901,0.1901,0.1903,0.1904,0.1905,0.1905,0.1906,0.1906,0.1907,0.1906,0.1906,0.1906,0.1906,0.1907,0.1907,0.1908,0.1908,0.1908,0,0,0.1894,0.1895,0.1895,0.1897,0.1897,0.1898,0.1899,0.1899,0.19,0.1902,0.1902,0.1903,0.1905,0.1905,0.1905,0.1906,0.1906,0.1906,0.1906,0.1906,0.1907,0.1907,0.1906,0.1908,0.1908,0.1908,0,0,0.1893,0.1894,0.1894,0.1895,0.1896,0.1897,0.1897,0.1898,0.1899,0.19,0.1901,0.1902,0.1903,0.1904,0.1905,0.1904,0.1905,0.1904,0.1904,0.1904,0.1904,0.1904,0.1904,0.1904,0.1904,0.1904,0.1904,0,0.1892,0.1892,0.1894,0.1894,0.1895,0.1896,0.1897,0.1897,0.1899,0.1899,0.19,0.1902,0.1903,0.1904,0.1903,0.1904,0.1904,0.1904,0.1904,0.1904,0.1904,0.1904,0.1904,0.1904,0.1904,0.1904,0.1904,0,0.1891,0.1892,0.1892,0.1893,0.1894,0.1894,0.1895,0.1896,0.1897,0.1898,0.1899,0.19,0.1901,0.1902,0.1902,0.1903,0.1903,0.1904,0.1904,0.1904,0.1904,0.1904,0.1904,0.1904,0.1904,0.1904,0,0,0.1888,0.1891,0.1891,0.1891,0.1893,0.1894,0.1894,0.1895,0.1896,0.1897,0.1898,0.1899,0.19,0.19,0.1901,0.1902,0.1902,0.1903,0.1903,0.1902,0.1902,0.1902,0.1902,0.1902,0.1902,0.1902,0.1902,0,0.1888,0.1888,0.189,0.189,0.1891,0.1893,0.1893,0.1894,0.1895,0.1896,0.1897,0.1898,0.1899,0.19,0.19,0.1902,0.1902,0.1902,0.1903,0.1903,0.1903,0.1902,0.1901,0.1901,0.1902,0.1902,0.1902,0,0.1886,0.1887,0.1888,0.189,0.189,0.1891,0.1892,0.1893,0.1894,0.1895,0.1896,0.1897,0.1898,0.1899,0.19,0.19,0.1901,0.1902,0.1902,0.1902,0.1903,0.1902,0.1901,0.1901,0.1902,0.1902,0.1902,0,0.1885,0.1886,0.1887,0.1887,0.1889,0.189,0.1891,0.1892,0.1893,0.1894,0.1895,0.1896,0.1897,0.1898,0.19,0.19,0.1901,0.1902,0.1902,0.1902,0.1902,0.1902,0.1901,0.1903,0.1903,0.1903,0.1903,0,0.1884,0.1884,0.1886,0.1886,0.1887,0.1889,0.1889,0.189,0.1892,0.1892,0.1894,0.1895,0.1897,0.1898,0.1899,0.19,0.1901,0.1902,0.1902,0.1902,0.1901,0.1902,0.1902,0.1903,0.1903,0.1903,0.1903,0,0.1882,0.1883,0.1884,0.1886,0.1886,0.1887,0.1888,0.1889,0.189,0.1891,0.1892,0.1894,0.1895,0.1897,0.1899,0.19,0.1901,0.1901,0.19,0.1901,0.1901,0.1901,0.19,0.19,0.1901,0.1901,0.1901,0,0.1881,0.1881,0.1883,0.1884,0.1884,0.1885,0.1886,0.1888,0.1889,0.1891,0.1891,0.1893,0.1894,0.1896,0.1898,0.19,0.19,0.19,0.19,0.19,0.19,0.19,0.1901,0.19,0.19,0.19,0.19,0,0.1879,0.188,0.1881,0.1882,0.1883,0.1884,0.1885,0.1886,0.1888,0.1889,0.189,0.1891,0.1893,0.1895,0.1897,0.1898,0.1899,0.19,0.19,0.1899,0.1899,0.1899,0.19,0.19,0.19,0.19,0.19,0.19,0.1878,0.1878,0.188,0.1881,0.1882,0.1883,0.1884,0.1885,0.1886,0.1888,0.1889,0.1891,0.1893,0.1895,0.1897,0.1898,0.1898,0.1898,0.1899,0.1899,0.1898,0.1898,0.1898,0.1898,0.1898,0.1898,0.1898,0,0.1876,0.1877,0.1878,0.188,0.1881,0.1882,0.1884,0.1885,0.1886,0.1887,0.1889,0.189,0.1892,0.1894,0.1896,0.1897,0.1897,0.1897,0.1897,0.1897,0.1898,0.1898,0.1897,0.1897,0.1897,0.1897,0.1897,0.1897,0.1876,0.1877,0.1878,0.1879,0.188,0.1882,0.1882,0.1884,0.1885,0.1887,0.1888,0.189,0.1891,0.1893,0.1895,0.1896,0.1896,0.1896,0.1897,0.1897,0.1897,0.1897,0.1897,0.1896,0.1896,0.1896,0.1896,0.1896]}]]